Other Public Products
Issued by NWS Grand Forks, ND

Home | Current Version | Previous Version | Graphics & Text | Print | Product List | Glossary On
Versions: 1 2 3 4 5 6 7 8 9 10 11 12 13 14 15 16 17 18 19 20 21 22 23 24 25 26 27 28 29 30 31 32 33 34 35 36 37 38 39 40 41 42 43 44 45 46 47 48 49 50
000
FPUS83 KFGF 181531
OPUFGF
PRAIRIE TO PINES WEATHER ROUNDUP
NATIONAL WEATHER SERVICE EASTERN NORTH DAKOTA/GRAND FORKS ND
900 AM CST SAT NOV 18 2017

 **SATELLITE DATA USED TO AUGMENT SKY COVER AT AUTOMATED STATIONS**
 *****  WEATHER ACROSS EASTERN NORTH DAKOTA  *****

CITY           SKY/WX    TMP DP  RH WIND       PRES   REMARKS
GRAND FORKS    FAIR      17  11  77 NW13      30.00R WCI   4
GRND FORKS AFB MOCLDY    16   9  73 NW13      30.00R WCI   3
GRND FORKS NWS   N/A     16 N/A N/A NW13        N/A  WCI   2
BUXTON           N/A     19  13  79 NW22        N/A  WCI   2
DEVILS LAKE    FAIR      13   9  84 NW22      29.99R WCI  -6
FARGO          FAIR      21  13  71 NW18      30.00R WCI   6
WAHPETON ARPT  NOT AVBL
$$

 *****  WEATHER ACROSS CENTRAL AND WESTERN NORTH DAKOTA  *****

CITY           SKY/WX    TMP DP  RH WIND       PRES   REMARKS
JAMESTOWN      FAIR      18  11  74 NW20      30.01R WCI   2
BISMARCK       MOCLDY    23  17  78 NW10      30.11R WCI  12
MINOT          FAIR      15   7  70 W22G28    30.06R WCI  -3
MINOT AFB      FAIR      13   6  73 NW18      30.06R WCI  -4
GARRISON         N/A     13   9  84 NW13      30.08R WCI  -2
WILLISTON      FAIR      14   9  80 W8        30.13R WCI   3
DICKINSON      FAIR      14  10  84 W8        30.08R WCI   3
HETTINGER      FAIR      15  10  80 W10       30.12R WCI   2
$$

 *****  OTHER OBSERVATIONS NORTHEAST NORTH DAKOTA  *****

CITY           SKY/WX    TMP DP  RH WIND       PRES   REMARKS
WALHALLA       FAIR      14   9  79 NW17      29.99S WCI  -3
LANGDON        FAIR      14  10  85 NW21G26   29.95S WCI  -4
CAVALIER       CLOUDY    16   7  67 NW18G26   29.99R WCI  -1
GRAFTON        CLOUDY    14  10  85 NW15      30.02R WCI  -1
CANDO          FAIR      12  10  92 W18       30.03R WCI  -5
FORT TOTTEN      N/A     15   9  78 NW10      29.95  WCI   2
ROLLA          FAIR      10   1  67 NW18G25   29.98R WCI  -8
RUGBY          PTSUNNY   10   7  85 NW17G23   30.05R WCI  -7
 ***** THE ABOVE OBSERVATIONS ARE NON NWS ARE NOT QUALITY
        CONTROLLED AND MAY MIS-REPORT RAIN FOR SNOW...
$$

 *****  OTHER OBSERVATIONS SOUTHEAST NORTH DAKOTA *****

CITY           SKY/WX    TMP DP  RH WIND       PRES   REMARKS
COOPERSTOWN    FAIR      16  12  86 NW17G25   30.00R WCI   0
VALLEY CITY    FLURRIES  18  14  86 NW15G22   30.02R WCI   3
OAKES            N/A     19  12  73 NW20G28   30.02R WCI   4
GWINNER          N/A     21  14  73 NW15      30.02R WCI   8
SHEYENNE NWR     N/A     22  14  71 NW12      29.95S WCI  10
BUFFALO          N/A     19  10  70 SE15        N/A  WCI   5
WYNDMERE       NOT AVBL
 ***** THE ABOVE OBSERVATIONS ARE NON NWS ARE NOT QUALITY
       CONTROLLED AND MAY MIS-REPORT RAIN FOR SNOW...
$$

  *****  WEATHER ACROSS NORTHERN MINNESOTA  *****

CITY           SKY/WX    TMP DP  RH WIND       PRES   REMARKS
FLAG ISLAND    CLOUDY    16  10  79 NW14      29.87R WCI   1
WARROAD        LGT SNOW  16  12  86 W7        29.91R WCI   6
ROSEAU         CLOUDY    16  12  86 W8        29.92R WCI   5
HALLOCK        FLURRIES  16  12  86 NW13      29.98R WCI   2
THF RVR FALLS  CLOUDY    16  11  80 NW13      29.95R WCI   2
HALSTAD          N/A     19  12  74 NW16        N/A  WCI   5
FOSSTON        CLOUDY    14  10  85 NW12      29.94R WCI   0
BAUDETTE       CLOUDY    17  13  84 W9        29.86R WCI   6
WASKISH        LGT SNOW  18  14  86 NW9G16    29.87R WCI   6
CROOKSTON      FAIR      18  12  79 NW18      29.99R WCI   2
$$
  *****  WEATHER ACROSS CENTRAL AND WEST MINNESOTA  *****

CITY           SKY/WX    TMP DP  RH WIND       PRES   REMARKS
BEMIDJI        CLOUDY    17  13  84 NW12      29.87R WCI   4
PARK RAPIDS    PTSUNNY   20  13  74 NW14      29.86R WCI   7
WADENA         PTSUNNY   19  16  86 NW17      29.88R WCI   4
DETROIT LAKES  PTSUNNY   19  14  79 NW17G23   29.94R WCI   4
MOORHEAD       FAIR      19  10  68 NW20      30.00R WCI   4
FERGUS FALLS   CLOUDY    19  14  79 NW18G25   29.99R WCI   4
ELBOW LAKE     FAIR      21  17  82 NW16G23   29.94R FOG     WCI   7
MORRIS MN      FAIR      23  18  80 NW18G28   29.93R WCI   9
STAPLES        PTSUNNY   21  18  86 NW8       29.87R WCI  12
WHEATON        CLOUDY    23  16  74 NW16G23   30.00R WCI  10
$$
  *****  WEATHER ELSEWHERE ACROSS MINNESOTA  *****

CITY           SKY/WX    TMP DP  RH WIND       PRES   REMARKS
DULUTH         FAIR      22  20  92 NW13      29.74R WCI  10
INTRNTL FALLS  CLOUDY    19  14  81 NW7       29.82S WCI  10
ELY            PTSUNNY   21  18  86 NW8       29.76F WCI  12
CLOQUET        FAIR      23  18  80 NW13G20   29.77R WCI  11
BRAINERD       PTSUNNY   23  16  74 NW10      29.84S WCI  12
HIBBING        FAIR      18  14  84 NW9       29.80S WCI   7
ALEXANDRIA     FAIR      22  17  81 NW15      29.89R WCI   9
SAINT CLOUD    FAIR      27  22  81 NW14      29.84R WCI  16
MINNEAPOLIS    PTSUNNY   32  28  85 N10       29.80R WCI  24
$$

  *****  WEATHER ACROSS SOUTH DAKOTA  *****

CITY           SKY/WX    TMP DP  RH WIND       PRES   REMARKS
SIOUX FALLS    FAIR      34  22  61 NW12      29.94R
BROOKINGS      FAIR      26  20  77 NW16      29.94R WCI  14
WATERTOWN      CLOUDY    24  18  77 NW12      29.94R WCI  13
HURON          CLOUDY    27  19  72 N17       30.03R WCI  14
SISSETON         N/A     24  17  74 NW21G28   29.97R WCI   9
ABERDEEN       FAIR      24  17  74 NW22G28   30.05R WCI   9
MITCHELL       PTSUNNY   31  23  72 NW15      30.02R WCI  20
PIERRE         FAIR      29  25  85 NW16      30.10R WCI  17
MOBRIDGE       FAIR      22  15  75 NW16      30.07R WCI   8
RAPID CITY     FAIR      36  18  48 NW14      30.12R
$$

  *****  SOME WEATHER IN NEARBY STATES *****

CITY           SKY/WX    TMP DP  RH WIND       PRES   REMARKS
GLASGOW MT     CLOUDY    14  11  87 CALM      30.12R
GREAT FALLS MT FAIR      33  18  53 SW22      30.11R WCI  21
CHEYENNE WY    FAIR      23  11  60 SW5       30.19R WCI  17
SCOTTSBLUFF NE FAIR      29  20  69 NW14      30.21R WCI  18
OMAHA NE       PTSUNNY   38  29  70 NW21G29   29.89R
DES MOINES IA  CLOUDY    39  34  82 N20G29    29.77R
DAVENPORT IA   LGT RAIN  38  36  92 N22G29    29.56S
CHICAGO IL     LGT RAIN  41  38  89 N16       29.47S
EAU CLAIRE WI  CLOUDY    35  31  85 N10       29.73R
LA CROSSE WI   CLOUDY    37  34  89 N17       29.69S
$$

  *****  SOME NATIONAL WEATHER *****

CITY           SKY/WX    TMP DP  RH WIND       PRES   REMARKS
LA GUARDIA NY  CLOUDY    46  29  51 SW8       29.92F
RALEIGH NC     PTSUNNY   54  41  61 SW12      30.01F
ATLANTA GA     PTSUNNY   55  51  86 S7        30.00S
NEW ORLEANS LA PTSUNNY   76  69  79 S13       29.94S
OKLAHOMA CITY  PTSUNNY   52  39  61 N28G39    29.93R
ALBUQUERQUE NM FAIR      37  12  35 N10G22    30.34R
SALT LAKE CITY FAIR      31  21  66 SE9       30.46R WCI  23
LOS ANGELES CA FAIR      58  55  90 VRB3      30.14R
BOISE ID       FAIR      31  23  72 SE10      30.40R WCI  22
SEATTLE WA     CLOUDY    46  38  73 S9        30.29S
$$

*** WEATHER ACROSS MANITOBA...SASKATCHEWAN AND ONTARIO ***
                ***ONTARIO***

CITY           SKY/WX    TMP DP  RH WIND       PRES   REMARKS
GERALDTON      CLOUDY    21  21 100 N13       29.67S FOG     WCI   9
THUNDER BAY    PTSUNNY   27  23  86 N5        29.73S WCI  21
SIOUX LOOKOUT  LGT SNOW  16  12  86 NW6       29.76S WCI   7
TORONTO        CLOUDY    43  41  93 SE5       29.50F FOG
BIG TROUT LK   FLURRIES  12   7  79 W9        29.69R WCI   0
PICKLE LAKE    LGT SNOW  14  10  85 NW5       29.73S WCI   6
DRYDEN         LGT SNOW  14  12  92 W6        29.78S WCI   5
KENORA         FLURRIES  16  12  86 NW8       29.82R WCI   5
$$
                *** MANITOBA***

CITY           SKY/WX    TMP DP  RH WIND       PRES   REMARKS
BRANDON        PTCLDY     5   0  78 W16       29.99R WCI -14
DAUPHIN        CLEAR      7   0  72 W21       29.96R WCI -13
ISLAND LAKE    FLURRIES   9   1  72 W17G30    29.77R WCI -10
PILOT MOUND      N/A      9   3  78 NW13G18     N/A  WCI  -7
THE PAS        FLURRIES  10   3  72 W16G22    29.86S WCI  -7
THOMPSON       PTCLDY     3  -6  66 W14       29.69R WCI -15
WINNIPEG       CLOUDY    14   7  73 NW15      29.97R WCI  -1
LYNN LAKE      FLURRIES   5   0  78 W20G30    29.66R WCI -15
CHURCHILL      CRYSTALS  -2  -8  78 SW14      29.48R WCI -21
GILLAM         PTCLDY     0  -6  78 W15G23    29.63  WCI -20
$$
                ***SASKATCHEWAN***

CITY           SKY/WX    TMP DP  RH WIND       PRES   REMARKS
ESTEVAN        FLURRIES   9   5  85 W9        30.08R WCI  -5
KINDERSLEY     CRYSTALS  -4  -9  77 SW9       29.97S FOG     WCI -20
LLOYDMINSTER   MOCLDY     1   0  92 SE5       29.90R WCI  -8
PRINCE ALBERT  MOCLDY    -4  -9  77 W7        30.01R WCI -18
REGINA         MOCLDY     1  -2  85 SW8       30.05R WCI -12
YORKTON        PTCLDY     0  -4  85 SW8       29.99R WC



USA.gov is the U.S. government's official web portal to all federal, state and local government web resources and services.